Flag for Germany Weather past 2 weeks in Hofheim am Taunus, Hesse, Germany

Now
62 °F

Scattered clouds.


Feels Like: 62 °F
Forecast: 50 / 64 °F
Wind: 15 mph from West

Location: Wiesbaden Airport

Current Time: May 29, 2015 at 7:23:04 PM

Latest Report: May 29, 2015 at 6:58 PM


Visibility: N/A

Pressure: 29.80 "Hg

Humidity: 65%

Dew point: 50 °F

Location of Hofheim am TaunusLocation

Historic Weather in Hofheim am Taunus — Graph

°F

Hofheim am Taunus temperature yesterday

Maximum temperature yesterday: 71 °F (at 2:58 PM)
Minimum temperature yesterday: 39 °F (at 2:58 AM)
Average temperature yesterday: 55 °F

Past Weeks' High & Low Weather Summary

 TemperatureHumidityPressure
High73 °F (May 15, 4:58 PM)94% (May 26, 2:58 AM)30.34 "Hg (May 26, 2:58 AM)
Low39 °F (May 28, 2:58 AM)33% (May 18, 2:58 PM)29.67 "Hg (May 19, 1:58 AM)
Average57 °F63%30.06 "Hg
* Reported May 14 5:58 PM — May 29 5:58 PM, Hofheim am Taunus, Weather by CustomWeather, © 2015

Note: Actual official high and low records may vary slightly from our data, if they occured in-between our weather recording intervals... More about our weather records

Advertising

Hofheim am Taunus weather history for previous 24 hours

 ConditionsComfort  
Time TempWeatherWind HumidityBarometerVisibility
5:58 PM
Fri, May 29
59 °FBroken clouds.10 mph94%29.80 "HgN/A
4:58 PM63 °FPartly sunny.8 mph73%29.81 "HgN/A
3:58 PM61 °FLight rain. Broken clouds.6 mph83%29.82 "HgN/A
2:58 PM62 °FLight rain. Broken clouds.10 mph71%29.83 "HgN/A
1:58 PM63 °FMostly cloudy.10 mph64%29.85 "HgN/A
12:58 PM64 °FMostly cloudy.1 mph52%29.87 "HgN/A
11:58 AM63 °FMore clouds than sun.10 mph52%29.89 "HgN/A
10:58 AM64 °FScattered clouds.10 mph53%29.90 "HgN/A
9:58 AM63 °FSunny.13 mph59%29.91 "HgN/A
8:58 AM57 °FPassing clouds.6 mph67%29.92 "HgN/A
7:58 AM55 °FSunny.7 mph73%29.94 "HgN/A
6:58 AM52 °FSunny.3 mph82%29.94 "HgN/A
5:58 AM50 °FPassing clouds.No wind82%29.94 "HgN/A
5:03 AM50 °FPartly cloudy.No wind88%29.94 "HgN/A
4:58 AM50 °FMostly cloudy.No wind88%29.94 "HgN/A
3:58 AM52 °FPassing clouds.1 mph82%29.95 "HgN/A
2:58 AM52 °FPassing clouds.2 mph82%29.96 "HgN/A
1:58 AM55 °FOvercast.3 mph72%29.97 "HgN/A
12:58 AM55 °FMostly cloudy.2 mph67%29.97 "HgN/A
11:58 PM
Thu, May 28
57 °FOvercast.5 mph64%29.97 "HgN/A
10:58 PM59 °FMostly cloudy.8 mph61%29.96 "HgN/A
9:58 PM61 °FBroken clouds.7 mph63%29.95 "HgN/A
8:58 PM61 °FScattered clouds.8 mph65%29.94 "HgN/A
7:58 PM64 °FPartly sunny.10 mph56%29.93 "HgN/A
7:00 PM66 °FScattered clouds.9 mph56%29.93 "HgN/A
Weather by CustomWeather, © 2015

See weather overviewHow to use our weather pages